Location: Warszawa
(52.2500°N, 21.0000°E)
Time: 12:56:03
(UTC+02:00)

Vanguard 2 - Pass Details

Date: 11 February 2023
Orbit: 553 x 2927 km, 32.9° (Epoch: 27 March)

Event Time Altitude Azimuth Distance (km) Brightness Sun altitude
Rises 21:59:51 0° 251° (WSW) 5,037 11.9 -45.8°
Reaches altitude 10° 22:03:14 10° 241° (WSW) 4,362 11.4 -46.1°
Enters shadow 22:06:09 19° 230° (SW) 3,920 11.0 -46.4°
Maximum altitude 22:13:54 33° 185° (S) 3,638 - -47.1°
Drops below altitude 10° 22:27:49 10° 131° (SE) 5,713 - -48.2°
Sets 22:33:07 0° 123° (ESE) 6,777 - -48.7°
